TimeEST,TemperatureF,Dew PointF,Humidity,Sea Level PressureIn,VisibilityMPH,Wind Direction,Wind SpeedMPH,Gust SpeedMPH,PrecipitationIn,Events,Conditions,WindDirDegrees,DateUTC
12:54 AM,41.0,32.0,70,30.33,10.0,SW,6.9,-,N/A,,Clear,220,2011-11-07 05:54:00
1:54 AM,42.1,30.9,65,30.34,10.0,SW,6.9,-,N/A,,Clear,220,2011-11-07 06:54:00
2:54 AM,43.0,30.0,60,30.34,10.0,SSW,8.1,-,N/A,,Clear,200,2011-11-07 07:54:00
3:54 AM,41.0,28.9,62,30.34,10.0,SW,6.9,-,N/A,,Clear,220,2011-11-07 08:54:00
4:54 AM,45.0,28.0,52,30.35,10.0,SW,9.2,-,N/A,,Clear,220,2011-11-07 09:54:00
5:54 AM,43.0,28.9,58,30.37,10.0,SW,10.4,-,N/A,,Clear,230,2011-11-07 10:54:00
6:54 AM,41.0,28.4,61,30.33,10.0,WSW,9.2,-,N/A,,Clear,240,2011-11-07 11:54:00
7:54 AM,43.0,30.0,60,30.38,10.0,WSW,9.2,-,N/A,,Clear,250,2011-11-07 12:54:00
8:54 AM,46.9,32.0,56,30.39,10.0,WSW,6.9,-,N/A,,Clear,240,2011-11-07 13:54:00
10:54 AM,54.0,35.1,49,30.38,10.0,SW,6.9,-,N/A,,Clear,220,2011-11-07 15:54:00
11:54 AM,57.0,37.0,47,30.36,10.0,West,9.2,16.1,N/A,,Clear,260,2011-11-07 16:54:00
12:54 PM,57.9,37.0,46,30.32,10.0,West,9.2,-,N/A,,Clear,260,2011-11-07 17:54:00
1:54 PM,60.1,37.9,44,30.31,10.0,West,6.9,-,N/A,,Clear,270,2011-11-07 18:54:00
2:54 PM,61.0,37.9,42,30.30,10.0,West,5.8,-,N/A,,Clear,270,2011-11-07 19:54:00
3:54 PM,59.0,37.9,46,30.30,10.0,West,9.2,-,N/A,,Clear,270,2011-11-07 20:54:00
4:54 PM,55.9,37.0,49,30.30,10.0,West,4.6,-,N/A,,Clear,270,2011-11-07 21:54:00
5:54 PM,55.0,36.0,49,30.32,10.0,West,3.5,-,N/A,,Clear,270,2011-11-07 22:54:00
6:54 PM,54.0,36.0,51,30.33,10.0,Calm,Calm,-,N/A,,Clear,0,2011-11-07 23:54:00
7:54 PM,54.0,36.0,51,30.33,10.0,West,3.5,-,N/A,,Clear,270,2011-11-08 00:54:00
8:54 PM,53.1,36.0,52,30.32,10.0,South,4.6,-,N/A,,Clear,190,2011-11-08 01:54:00
9:54 PM,52.0,36.0,54,30.31,10.0,SW,5.8,-,N/A,,Clear,220,2011-11-08 02:54:00
10:54 PM,50.0,36.0,59,30.30,10.0,South,5.8,-,N/A,,Clear,190,2011-11-08 03:54:00
11:54 PM,50.0,36.0,59,30.29,10.0,SSW,4.6,-,N/A,,Clear,210,2011-11-08 04:54:00